Flag for U.S.A. Weather past 2 weeks in Washington DC, District of Columbia, U.S.A.

Now
83 °F

Scattered clouds.


Feels Like: 84 °F
Forecast: 62 / 86 °F
Wind: 13 mph from South

Location: Reagan National Airport

Current Time: Jul 31, 2014 at 2:11:42 PM

Latest Report: Jul 31, 2014 at 12:52 PM


Visibility: 10 mi

Pressure: 30.10 "Hg

Humidity: 51%

Dew point: 63 °F

Location of Washington DCLocation

Historic Weather in Washington DC — Graph

°F

Washington DC temperature yesterday

Maximum temperature yesterday: 79 °F (at 1:52 PM)
Minimum temperature yesterday: 60 °F (at 6:52 AM)
Average temperature yesterday: 72 °F

Past Weeks' High & Low Weather Summary

 TemperatureHumidityPressure
High93 °F (Jul 23, 2:52 PM)85% (Jul 28, 6:52 AM)30.24 "Hg (Jul 28, 6:52 AM)
Low60 °F (Jul 30, 6:52 AM)31% (Jul 18, 1:52 PM)29.59 "Hg (Jul 28, 4:52 AM)
Average77 °F57%30.00 "Hg
* Reported Jul 16 12:52 PM — Jul 31 12:52 PM, Washington DC, Weather by CustomWeather, © 2014

Note: Actual official high and low records may vary slightly from our data, if they occured in-between our weather recording intervals... More about our weather records

Advertising

Washington DC weather history for previous 24 hours

 ConditionsComfort  
Time TempWeatherWind HumidityBarometerVisibility
12:52 PM
Jul 31
83 °FScattered clouds.13 mph51%30.10 "Hg10 mi
11:52 AM83 °FScattered clouds.10 mph51%30.11 "Hg10 mi
10:52 AM80 °FScattered clouds.6 mph52%30.11 "Hg10 mi
9:52 AM77 °FPassing clouds.7 mph56%30.11 "Hg10 mi
8:52 AM74 °FPassing clouds.7 mph62%30.11 "Hg10 mi
7:52 AM71 °FPassing clouds.5 mph68%30.11 "Hg10 mi
6:52 AM68 °FPassing clouds.6 mph76%30.09 "Hg9 mi
5:52 AM67 °FClear.6 mph79%30.09 "Hg9 mi
4:52 AM68 °FClear.3 mph73%30.07 "Hg9 mi
3:52 AM68 °FClear.3 mph73%30.07 "Hg9 mi
2:52 AM68 °FClear.3 mph70%30.07 "Hg9 mi
1:52 AM69 °FClear.7 mph68%30.07 "Hg9 mi
12:52 AM70 °FClear.7 mph66%30.07 "Hg9 mi
11:52 PM
Jul 30
71 °FClear.6 mph63%30.07 "Hg9 mi
10:52 PM73 °FPassing clouds.6 mph53%30.06 "Hg9 mi
9:52 PM72 °FPassing clouds.6 mph55%30.06 "Hg10 mi
8:52 PM75 °FScattered clouds.9 mph48%30.06 "Hg10 mi
7:52 PM76 °FScattered clouds.9 mph45%30.05 "Hg10 mi
6:52 PM78 °FScattered clouds.12 mph43%30.03 "Hg10 mi
5:52 PM79 °FScattered clouds.12 mph44%30.02 "Hg10 mi
4:52 PM79 °FPartly sunny.13 mph42%30.04 "Hg10 mi
3:52 PM79 °FPartly sunny.12 mph42%30.05 "Hg10 mi
2:52 PM79 °FScattered clouds.10 mph39%30.06 "Hg10 mi
Weather by CustomWeather, © 2014

See weather overviewHow to use our weather pages